YACHTS Weather Reports


time (UTC)temp
F
wind
direction
speed
knots
gust
knots
rain 1hr
in
rain 24hr
in
rain mn
in
humidity
%
barometer
mb
20260901154805 57 0 0.0 3.5 0.00 0.01 0.01 94 1012.4
20260901154252 56 254 0.0 3.5 0.00 0.01 0.01 94 1012.4
20260901153225 56 189 0.0 2.6 0.00 0.01 0.01 94 1012.3
20260901152712 56 0 0.0 0.0 0.00 0.01 0.01 94 1012.3
20260901151646 56 0 0.0 0.0 0.00 0.01 0.01 94 1012.4
20260901151133 56 0 0.0 0.0 0.00 0.01 0.01 94 1012.3
20260901150620 55 0 0.0 0.0 0.00 0.01 0.01 94 1012.3
20260901150107 56 0 0.0 0.0 0.00 0.01 0.01 94 1012.3
20260901145554 56 0 0.0 0.0 0.00 0.01 0.01 94 1012.3
20260901145041 56 0 0.0 0.0 0.00 0.01 0.01 94 1012.3
20260901144015 56 0 0.0 0.0 0.00 0.01 0.01 94 1012.2
20260901143502 56 0 0.0 0.0 0.00 0.01 0.01 94 1012.1
20260901142950 56 0 0.0 0.0 0.00 0.01 0.01 94 1012.1
20260901142436 56 0 0.0 0.0 0.00 0.01 0.01 94 1012.1
20260901141923 56 0 0.0 0.0 0.00 0.01 0.01 94 1012.0
20260901141410 55 0 0.0 0.0 0.00 0.01 0.01 94 1012.0
20260901140857 55 0 0.0 0.0 0.00 0.01 0.01 94 1012.0
20260901140344 56 0 0.0 0.0 0.00 0.01 0.01 94 1012.0
20260901135318 56 0 0.0 0.0 0.00 0.01 0.01 94 1011.9
20260901134805 55 0 0.0 0.0 0.00 0.01 0.01 94 1011.8
20260901134252 55 0 0.0 0.0 0.00 0.01 0.01 94 1011.7
20260901133739 56 0 0.0 0.0 0.00 0.01 0.01 94 1011.7
20260901132713 55 0 0.0 0.0 0.00 0.01 0.01 94 1011.6
20260901132200 55 0 0.0 0.0 0.00 0.01 0.01 94 1011.6
20260901131647 56 189 0.0 4.3 0.00 0.01 0.01 94 1011.6
20260901131134 56 0 0.0 4.3 0.00 0.01 0.01 94 1011.5
20260901130621 55 211 0.0 4.3 0.00 0.01 0.01 94 1011.6
20260901130108 55 0 0.0 0.0 0.00 0.01 0.01 94 1011.5
20260901125042 55 0 0.0 0.0 0.00 0.01 0.01 94 1011.6
20260901124529 57 0 0.0 0.0 0.00 0.01 0.01 94 1011.5
20260901124016 56 0 0.0 2.6 0.00 0.01 0.01 94 1011.5
20260901123503 55 0 0.0 2.6 0.00 0.01 0.01 94 1011.5
20260901122950 56 0 0.0 2.6 0.00 0.01 0.01 94 1011.5
20260901122437 56 0 0.0 0.0 0.00 0.01 0.01 94 1011.5
20260901121924 56 238 0.0 4.3 0.01 0.01 0.01 94 1011.5
20260901121411 57 238 0.0 4.3 0.01 0.01 0.01 94 1011.6
20260901120858 56 205 0.0 4.3 0.01 0.01 0.01 94 1011.6
20260901120345 56 0 0.0 0.0 0.01 0.01 0.01 94 1011.5
20260901115832 55 0 0.0 0.0 0.01 0.01 0.01 93 1011.5
20260901115319 56 0 0.0 0.0 0.01 0.01 0.01 93 1011.5
20260901114806 57 158 1.7 8.7 0.01 0.01 0.01 93 1011.5
20260901114253 56 0 0.0 8.7 0.01 0.01 0.01 93 1011.5
20260901113228 56 0 0.0 7.0 0.01 0.01 0.01 93 1011.5
20260901112714 56 254 0.0 7.0 0.01 0.01 0.01 93 1011.6
20260901112201 56 0 0.0 7.0 0.01 0.01 0.01 93 1011.6
20260901111648 57 0 0.0 3.5 0.00 0.00 0.00 93 1011.6
20260901111135 57 0 0.0 0.0 0.00 0.00 0.00 93 1011.5
20260901110622 56 0 0.0 5.2 0.00 0.00 0.00 93 1011.5
20260901110109 57 0 0.0 5.2 0.00 0.00 0.00 93 1011.5
20260901105557 57 177 0.9 5.2 0.00 0.00 0.00 93 1011.6
20260901105043 57 0 0.0 4.3 0.00 0.00 0.00 93 1011.5
20260901104017 56 0 0.0 4.3 0.00 0.00 0.00 93 1011.6
20260901103504 57 0 0.0 3.5 0.00 0.00 0.00 93 1011.6
20260901102951 57 0 0.0 0.0 0.00 0.00 0.00 93 1011.6
20260901102438 56 0 0.0 7.0 0.00 0.00 0.00 93 1011.5
20260901101925 57 0 0.0 7.0 0.00 0.00 0.00 93 1011.5
20260901101412 57 319 0.0 7.0 0.00 0.00 0.00 93 1011.5
20260901100859 56 176 0.0 5.2 0.00 0.00 0.00 92 1011.5
20260901100346 56 161 1.7 5.2 0.00 0.00 0.00 92 1011.4
20260901095834 56 228 0.0 2.6 0.00 0.00 0.00 92 1011.5
20260901095320 57 0 0.0 7.0 0.00 0.00 0.00 92 1011.5
20260901094807 57 0 0.0 7.0 0.00 0.00 0.00 92 1011.5
20260901094254 58 232 0.0 7.0 0.00 0.00 0.00 92 1011.5
20260901093742 57 215 0.9 6.1 0.00 0.00 0.00 92 1011.6
20260901092202 57 152 0.0 7.0 0.00 0.00 0.00 92 1011.5
20260901091649 57 254 0.0 7.0 0.00 0.00 0.00 92 1011.6
20260901091136 57 176 1.7 6.1 0.00 0.00 0.00 92 1011.5
20260901090110 56 0 0.0 6.1 0.00 0.00 0.00 92 1011.5
20260901085557 57 305 0.9 5.2 0.00 0.00 0.00 92 1011.4
20260901085044 56 235 0.0 7.8 0.00 0.00 0.00 92 1011.4
20260901084531 57 0 0.0 7.8 0.00 0.00 0.00 92 1011.4
20260901084018 57 281 0.0 7.8 0.00 0.00 0.00 92 1011.5
20260901083505 57 249 0.9 6.1 0.00 0.00 0.00 92 1011.5
20260901082952 57 0 0.9 6.1 0.00 0.00 0.00 92 1011.5
20260901082439 57 0 0.0 6.1 0.00 0.00 0.00 92 1011.6
20260901081926 57 246 0.0 5.2 0.00 0.00 0.00 92 1011.5
20260901081413 57 243 0.0 6.1 0.00 0.00 0.00 92 1011.5
20260901080900 57 0 0.0 6.1 0.00 0.00 0.00 92 1011.4
20260901080347 58 245 2.6 6.1 0.00 0.00 0.00 92 1011.4
20260901075835 57 274 0.0 1.7 0.00 0.00 0.00 92 1011.3
20260901075321 57 0 0.0 0.0 0.00 0.00 0.00 92 1011.3
20260901074808 57 0 0.0 5.2 0.00 0.00 0.00 92 1011.2
20260901074255 57 274 0.0 5.2 0.00 0.00 0.00 92 1011.2
20260901073742 57 0 0.0 5.2 0.00 0.00 0.00 92 1011.2
20260901072716 58 0 0.0 2.6 0.00 0.00 0.00 92 1011.3
20260901072203 57 0 0.0 2.6 0.00 0.00 0.00 92 1011.2
20260901071650 57 0 0.0 2.6 0.00 0.00 0.00 92 1011.3
20260901071137 57 0 0.0 2.6 0.00 0.00 0.00 92 1011.3
20260901070624 58 0 0.0 2.6 0.00 0.00 0.00 92 1011.2
20260901070111 57 0 0.0 0.0 0.00 0.00 0.00 92 1011.2
20260901065558 57 0 0.0 0.0 0.00 0.00 0.00 92 1011.3
20260901065045 57 0 0.0 0.0 0.00 0.00 0.00 92 1011.2
20260901064532 57 0 0.0 0.0 0.00 0.00 0.00 92 1011.2
20260901064019 58 0 0.0 0.0 0.00 0.00 0.00 92 1011.3
20260901063506 57 0 0.0 3.5 0.00 0.00 0.00 92 1011.3
20260901062953 58 0 0.0 3.5 0.00 0.00 0.00 92 1011.2
20260901062440 57 0 0.0 3.5 0.00 0.00 0.00 92 1011.3
20260901061927 57 268 0.0 0.9 0.00 0.00 0.00 92 1011.3
20260901061414 57 0 0.0 0.0 0.00 0.00 0.00 92 1011.3
20260901060901 57 0 0.0 0.0 0.00 0.00 0.00 92 1011.4
20260901060348 57 0 0.0 4.3 0.00 0.00 0.00 92 1011.4
20260901055835 57 0 0.0 4.3 0.00 0.00 0.00 92 1011.4
20260901055322 57 302 0.0 4.3 0.00 0.00 0.00 92 1011.5
20260901054809 57 0 0.0 2.6 0.00 0.00 0.00 92 1011.6
20260901054256 57 0 0.0 2.6 0.00 0.00 0.00 92 1011.6
20260901053743 57 280 0.0 2.6 0.00 0.00 0.00 92 1011.6
20260901053230 57 0 0.0 0.0 0.00 0.00 0.00 92 1011.6
20260901052717 57 0 0.0 0.0 0.00 0.00 0.00 92 1011.7
20260901052204 57 0 0.0 0.0 0.00 0.00 0.00 92 1011.7
20260901051651 57 0 0.0 0.0 0.00 0.00 0.00 92 1011.6
20260901051138 57 0 0.0 0.0 0.00 0.00 0.00 91 1011.6
20260901050625 56 0 0.0 0.0 0.00 0.00 0.00 91 1011.6
20260901050112 57 0 0.0 0.0 0.00 0.00 0.00 91 1011.6
20260901045046 56 0 0.0 0.0 0.00 0.00 0.00 91 1011.6
20260901044533 56 0 0.0 0.0 0.00 0.00 0.00 91 1011.7
20260901044020 57 0 0.0 0.0 0.00 0.00 0.00 91 1011.6
20260901043507 57 0 0.0 0.0 0.00 0.00 0.00 91 1011.7
20260901042954 57 0 0.0 0.0 0.00 0.00 0.00 91 1011.6
20260901042441 57 0 0.0 0.0 0.00 0.00 0.00 91 1011.6
20260901041928 57 0 0.0 0.0 0.00 0.00 0.00 91 1011.5
20260901041415 58 0 0.0 0.0 0.00 0.00 0.00 91 1011.4
20260901040902 57 0 0.0 0.0 0.00 0.00 0.00 91 1011.3
20260901040350 57 0 0.0 0.0 0.00 0.00 0.00 91 1011.3
20260901035836 58 0 0.0 0.0 0.00 0.00 0.00 91 1011.2
20260901035323 57 0 0.0 0.0 0.00 0.00 0.00 91 1011.1
20260901034810 58 0 0.0 0.0 0.00 0.00 0.00 91 1011.2
20260901034257 58 0 0.0 0.0 0.00 0.00 0.00 91 1011.1
20260901033744 58 0 0.0 0.0 0.00 0.00 0.00 91 1011.0
20260901033231 58 0 0.0 0.0 0.00 0.00 0.00 91 1011.0
20260901032205 58 0 0.0 0.0 0.00 0.00 0.00 91 1011.0
20260901031138 58 0 0.0 0.0 0.00 0.00 0.00 91 1011.0
20260901030625 57 0 0.0 0.0 0.00 0.00 0.00 91 1010.9
20260901030113 57 0 0.0 0.0 0.00 0.00 0.00 91 1010.8
20260901025559 58 0 0.0 0.0 0.00 0.00 0.00 91 1010.7
20260901025046 58 0 0.0 0.0 0.00 0.00 0.00 91 1010.8
20260901024534 57 0 0.0 0.0 0.00 0.00 0.00 91 1010.8
20260901024020 57 0 0.0 5.2 0.00 0.00 0.00 91 1010.9
20260901023507 57 0 0.0 5.2 0.00 0.00 0.00 91 1010.9
20260901022954 57 0 1.7 5.2 0.00 0.00 0.00 90 1010.8
20260901022441 57 0 0.0 0.0 0.00 0.00 0.00 90 1010.8
20260901021928 56 175 0.0 6.1 0.00 0.00 0.00 90 1010.7
20260901021415 57 148 0.0 6.1 0.00 0.00 0.00 90 1010.9
20260901020902 56 207 3.5 6.1 0.00 0.00 0.00 90 1010.9
20260901020350 56 260 4.3 7.8 0.00 0.00 0.00 90 1010.9
20260901015836 57 285 1.7 7.8 0.00 0.00 0.00 90 1010.9
20260901015323 57 247 4.3 7.8 0.00 0.00 0.00 89 1010.9
20260901014811 57 0 0.0 7.8 0.00 0.00 0.00 89 1010.8
20260901014258 56 280 0.0 7.8 0.00 0.00 0.00 89 1010.7
20260901013744 57 264 4.3 7.8 0.00 0.00 0.00 89 1010.7
20260901012718 57 240 0.0 5.2 0.00 0.00 0.00 89 1010.6
20260901011652 57 0 0.0 4.3 0.00 0.00 0.00 89 1010.5
20260901011139 57 259 0.0 4.3 0.00 0.00 0.00 88 1010.5
20260901010626 58 0 0.0 7.0 0.00 0.00 0.00 88 1010.5
20260901010113 57 239 0.0 7.0 0.00 0.00 0.00 88 1010.5
20260901005600 58 235 0.9 7.0 0.00 0.00 0.00 87 1010.5
20260901005047 58 281 2.6 4.3 0.00 0.00 0.00 88 1010.5
20260901004534 58 0 0.0 2.6 0.00 0.00 0.00 88 1010.5
20260901004021 58 0 0.0 8.7 0.00 0.00 0.00 87 1010.5
20260901003508 59 0 2.6 8.7 0.00 0.00 0.00 87 1010.7
20260901002955 59 278 0.0 8.7 0.00 0.00 0.00 87 1010.7
20260901002442 59 275 3.5 7.0 0.00 0.00 0.00 87 1010.6
20260901001929 60 256 0.9 4.3 0.00 0.00 0.00 87 1010.5
20260901001416 60 194 0.0 2.6 0.00 0.00 0.00 87 1010.5
20260901000903 59 287 2.6 6.1 0.00 0.00 0.00 87 1010.6
20260901000350 60 261 2.6 6.1 0.00 0.00 0.00 86 1010.6
20260831235837 60 302 2.6 6.1 0.00 0.00 0.00 86 1010.7
20260831235324 60 266 0.0 6.1 0.00 0.00 0.00 87 1010.7
20260831234811 61 305 0.9 6.1 0.00 0.00 0.00 86 1010.7
20260831234259 61 270 2.6 6.1 0.00 0.00 0.00 85 1010.7
20260831233745 62 229 3.5 6.1 0.00 0.00 0.00 85 1010.7
20260831232206 62 299 1.7 5.2 0.00 0.00 0.00 86 1010.7
20260831231653 62 329 3.5 5.2 0.00 0.00 0.00 86 1010.7
20260831231140 62 0 0.0 5.2 0.00 0.00 0.00 87 1010.8
20260831230627 61 212 1.7 5.2 0.00 0.00 0.00 87 1010.9
20260831230114 61 253 3.5 5.2 0.00 0.00 0.00 88 1010.9
20260831225602 59 292 2.6 7.8 0.00 0.00 0.00 88 1010.9
20260831224535 58 193 2.6 7.8 0.00 0.00 0.00 87 1011.0
20260831224022 59 280 0.9 7.8 0.00 0.00 0.00 87 1011.1
20260831223509 58 254 3.5 7.8 0.00 0.00 0.00 87 1011.0
20260831222956 58 294 2.6 7.8 0.00 0.00 0.00 87 1011.1
20260831222443 59 224 5.2 11.3 0.00 0.00 0.00 86 1011.1
20260831221930 59 242 5.2 11.3 0.00 0.00 0.00 86 1011.1
20260831221417 59 274 5.2 11.3 0.00 0.00 0.00 86 1011.1
20260831220904 60 238 4.3 8.7 0.00 0.00 0.00 86 1011.1
20260831220351 61 268 4.3 8.7 0.00 0.00 0.00 86 1011.1
20260831215838 61 235 4.3 7.8 0.00 0.00 0.00 86 1011.0
20260831215325 61 264 4.3 7.8 0.00 0.00 0.00 86 1011.0
20260831214813 62 266 6.1 10.4 0.00 0.00 0.00 86 1011.0
20260831214259 61 268 4.3 10.4 0.00 0.00 0.00 86 1011.0
20260831213746 62 271 6.1 10.4 0.00 0.00 0.00 85 1011.0
20260831213233 62 270 5.2 7.8 0.00 0.00 0.00 85 1011.0
20260831212720 62 253 1.7 7.8 0.00 0.00 0.00 86 1010.9
20260831212207 62 288 3.5 7.8 0.00 0.00 0.00 86 1010.9
20260831211654 62 285 5.2 8.7 0.00 0.00 0.00 86 1010.8
20260831211141 61 291 2.6 8.7 0.00 0.00 0.00 86 1010.8
20260831210628 62 266 2.6 8.7 0.00 0.00 0.00 87 1010.8
20260831210115 61 254 4.3 7.8 0.00 0.00 0.00 86 1010.8
20260831205049 61 277 1.7 8.7 0.00 0.00 0.00 88 1010.9
20260831204536 60 275 3.5 8.7 0.00 0.00 0.00 87 1010.9
20260831204023 60 277 2.6 8.7 0.00 0.00 0.00 87 1011.0
20260831202959 60 0 2.6 7.8 0.00 0.00 0.00 88 1011.0
20260831202444 58 261 2.6 7.0 0.00 0.00 0.00 88 1011.0
20260831201931 59 238 3.5 9.6 0.00 0.00 0.00 88 1011.0
20260831200905 59 275 2.6 9.6 0.00 0.00 0.00 88 1011.1
20260831200352 59 287 5.2 8.7 0.00 0.00 0.00 89 1011.1
20260831195839 58 236 5.2 7.8 0.00 0.00 0.00 88 1011.1
20260831194352 58 288 5.2 7.8 0.00 0.00 0.00 88 1011.0
20260831194300 58 288 5.2 7.8 0.00 0.00 0.00 88 1011.0
20260831193748 58 305 5.2 7.8 0.00 0.00 0.00 89 1011.0
20260831193234 58 310 3.5 7.8 0.00 0.00 0.00 89 1011.0
20260831192721 58 288 6.1 7.8 0.00 0.00 0.00 88 1010.9
20260831192208 59 284 6.1 7.0 0.00 0.00 0.00 88 1010.9
20260831191655 60 291 4.3 7.0 0.00 0.00 0.00 88 1010.8
20260831191142 61 305 5.2 7.0 0.00 0.00 0.00 88 1010.8
20260831190629 60 292 4.3 6.1 0.00 0.00 0.00 89 1010.8
20260831190116 60 295 5.2 6.1 0.00 0.00 0.00 89 1010.8
20260831185603 60 308 1.7 6.1 0.00 0.00 0.00 89 1010.9
20260831185050 60 287 4.3 5.2 0.00 0.00 0.00 89 1011.0
20260831184537 61 292 4.3 7.0 0.00 0.00 0.00 89 1011.0
20260831184024 62 298 4.3 7.0 0.00 0.00 0.00 89 1011.1
20260831183511 62 305 4.3 7.0 0.00 0.00 0.00 89 1011.1
20260831183000 62 285 0.0 6.1 0.00 0.00 0.00 91 1011.2
20260831182445 61 268 0.0 6.1 0.00 0.00 0.00 91 1011.2
20260831180353 60 303 3.5 5.2 0.00 0.00 0.00 92 1011.3
20260831175840 60 250 1.7 5.2 0.00 0.00 0.00 92 1011.3
20260831174814 59 280 0.0 4.3 0.00 0.00 0.00 92 1011.3
20260831174301 59 298 0.0 4.3 0.00 0.00 0.00 93 1011.3
20260831173748 58 0 0.0 4.3 0.00 0.00 0.00 93 1011.3
20260831173235 57 298 0.0 4.3 0.00 0.00 0.00 93 1011.3
20260831172722 57 294 2.6 4.3 0.00 0.00 0.00 93 1011.3
20260831172210 56 308 1.7 4.3 0.00 0.00 0.00 93 1011.2
20260831171656 56 0 0.0 0.0 0.00 0.00 0.00 94 1011.2
20260831171143 56 0 0.0 0.0 0.00 0.00 0.00 94 1011.2
20260831170630 56 0 0.0 0.0 0.00 0.00 0.00 94 1011.3
20260831170117 56 0 0.0 0.0 0.00 0.00 0.00 94 1011.2
20260831165604 56 0 0.0 0.0 0.00 0.00 0.00 94 1011.1
20260831165051 56 0 0.0 0.0 0.00 0.00 0.00 94 1011.2
20260831164538 55 0 0.0 0.0 0.00 0.00 0.00 94 1011.1
20260831164025 55 0 0.0 0.0 0.00 0.00 0.00 94 1011.1
20260831163512 55 0 0.0 0.0 0.00 0.00 0.00 94 1011.2
20260831162446 55 0 0.0 0.0 0.00 0.00 0.00 94 1011.3
20260831161933 55 0 0.0 0.0 0.00 0.00 0.00 94 1011.3
20260831161420 54 0 0.0 0.0 0.00 0.00 0.00 95 1011.2
20260831160907 54 0 0.0 0.0 0.00 0.00 0.00 95 1011.3
20260831160354 54 0 0.0 0.0 0.00 0.00 0.00 95 1011.3
20260831155841 54 0 0.0 0.0 0.00 0.01 0.00 95 1011.3